GW3985 Weather Reports


Display with metric or nautical units.
time (UTC)temp
F
wind
direction
speed
MPH
gust
MPH
rain 1hr
in
rain 24hr
in
rain mn
in
humidity
%
barometer
mb
20260509001015 70 233 0.0 2.0 0.00 0.00 0.00 38 1018.4
20260509000015 71 101 1.0 3.0 0.00 0.00 0.00 37 1018.5
20260508235016 71 110 0.0 1.0 0.00 0.00 0.00 37 1018.5
20260508234016 72 278 0.0 1.0 0.00 0.00 0.00 35 1018.5
20260508233036 73 152 0.0 2.0 0.00 0.00 0.00 35 1018.5
20260508232017 71 299 0.0 3.0 0.00 0.00 0.00 37 1018.6
20260508231015 71 311 1.0 4.0 0.00 0.00 0.00 37 1018.5
20260508230015 72 101 1.0 2.0 0.00 0.00 0.00 36 1018.6
20260508225015 72 322 0.0 2.0 0.00 0.00 0.00 37 1018.7
20260508224016 72 345 1.0 3.0 0.00 0.00 0.00 37 1018.7
20260508223016 71 160 0.0 2.0 0.00 0.00 0.00 36 1018.6
20260508222016 71 267 1.0 3.0 0.00 0.00 0.00 37 1018.7
20260508221037 71 110 1.0 2.0 0.00 0.00 0.00 39 1018.7
20260508220015 70 87 1.0 6.0 0.00 0.00 0.00 39 1018.7
20260508215015 71 282 1.0 4.0 0.00 0.00 0.00 38 1018.9
20260508214016 71 111 1.0 4.0 0.00 0.00 0.00 38 1018.9
20260508213016 70 296 1.0 4.0 0.00 0.00 0.00 39 1019.1
20260508212016 70 166 1.0 3.0 0.00 0.00 0.00 39 1019.1
20260508211016 70 168 1.0 2.0 0.00 0.00 0.00 40 1019.1
20260508210017 68 89 1.0 4.0 0.00 0.00 0.00 41 1019.3
20260508205015 70 106 2.0 6.0 0.00 0.00 0.00 40 1019.5
20260508204015 71 244 1.0 3.0 0.00 0.00 0.00 38 1019.5
20260508203035 70 319 1.0 2.0 0.00 0.00 0.00 40 1019.6
20260508202016 69 308 1.0 2.0 0.00 0.00 0.00 39 1019.7
20260508201017 69 57 1.0 3.0 0.00 0.00 0.00 42 1019.8
20260508200016 70 245 0.0 2.0 0.00 0.00 0.00 41 1019.8
20260508195017 70 282 1.0 2.0 0.00 0.00 0.00 39 1019.9
20260508194015 70 310 0.0 2.0 0.00 0.00 0.00 40 1020.1
20260508193016 67 175 0.0 2.0 0.00 0.00 0.00 43 1020.2
20260508192016 67 250 1.0 3.0 0.00 0.00 0.00 42 1020.2
20260508191036 67 332 1.0 4.0 0.00 0.00 0.00 43 1020.3
20260508190017 67 256 1.0 3.0 0.00 0.00 0.00 42 1020.3
20260508185017 67 256 1.0 3.0 0.00 0.00 0.00 44 1020.4
20260508184055 66 279 1.0 2.0 0.00 0.00 0.00 45 1020.5
20260508183015 65 172 0.0 1.0 0.00 0.00 0.00 44 1020.6
20260508182015 66 113 1.0 2.0 0.00 0.00 0.00 44 1020.6
20260508181016 65 323 0.0 3.0 0.00 0.00 0.00 45 1020.7
20260508180016 64 272 1.0 3.0 0.00 0.00 0.00 45 1020.8
20260508175057 64 17 0.0 1.0 0.00 0.00 0.00 46 1020.8
20260508174037 63 256 1.0 4.0 0.00 0.00 0.00 47 1020.9
20260508173015 62 242 0.0 2.0 0.00 0.00 0.00 46 1020.8
20260508172015 62 50 0.0 2.0 0.00 0.00 0.00 47 1020.9
20260508171035 61 292 0.0 2.0 0.00 0.01 0.00 47 1021.0
20260508170016 60 332 0.0 2.0 0.00 0.01 0.00 49 1021.2
20260508165016 60 21 0.0 2.0 0.00 0.01 0.00 50 1021.2
20260508164016 59 319 0.0 1.0 0.00 0.02 0.00 51 1021.2
20260508163017 58 331 0.0 2.0 0.00 0.02 0.00 52 1021.3
20260508162015 57 286 0.0 1.0 0.00 0.02 0.00 55 1021.4
20260508161015 57 139 0.0 2.0 0.00 0.02 0.00 56 1021.5
20260508160016 56 253 0.0 1.0 0.00 0.03 0.00 60 1021.5
20260508155016 55 227 0.0 3.0 0.00 0.04 0.00 61 1021.5
20260508154036 53 154 0.0 3.0 0.00 0.04 0.00 66 1021.6
20260508153016 52 257 0.0 2.0 0.00 0.06 0.00 67 1021.6
20260508152017 52 250 1.0 2.0 0.00 0.06 0.00 71 1021.7
20260508151015 51 247 0.0 2.0 0.00 0.06 0.00 73 1021.8
20260508150035 50 244 0.0 2.0 0.00 0.06 0.00 75 1021.9
20260508145015 49 80 0.0 1.0 0.00 0.06 0.00 78 1021.9
20260508144036 48 99 0.0 1.0 0.00 0.06 0.00 80 1022.1
20260508143017 47 144 1.0 3.0 0.00 0.06 0.00 81 1022.0
20260508142017 47 232 0.0 2.0 0.00 0.06 0.00 82 1022.2
20260508141017 46 222 0.0 1.0 0.00 0.06 0.00 82 1022.2
20260508140015 46 257 0.0 2.0 0.00 0.06 0.00 83 1022.3
20260508135015 45 261 0.0 1.0 0.00 0.06 0.00 85 1022.4
20260508134016 44 251 0.0 1.0 0.00 0.06 0.00 88 1022.4
20260508133016 43 277 0.0 1.0 0.00 0.06 0.00 90 1022.3
20260508132016 42 0.0 0.0 0.00 0.06 0.00 91 1022.1
20260508131017 41 0.0 0.0 0.00 0.06 0.00 91 1022.1
20260508130015 40 0.0 0.0 0.00 0.06 0.00 91 1022.1
20260508125035 39 0.0 0.0 0.00 0.06 0.00 91 1021.9
20260508124015 39 0.0 0.0 0.00 0.06 0.00 91 1021.7
20260508123016 39 0.0 0.0 0.00 0.06 0.00 90 1021.1
20260508122016 39 0.0 0.0 0.00 0.06 0.00 90 1020.9
20260508121016 39 0.0 0.0 0.00 0.06 0.00 89 1020.8
20260508120017 39 0.0 0.0 0.00 0.06 0.00 89 1020.4
20260508115015 39 0.0 0.0 0.00 0.06 0.00 89 1020.3
20260508114015 39 0.0 0.0 0.00 0.06 0.00 88 1020.2
20260508113015 39 0.0 0.0 0.00 0.06 0.00 88 1020.2
20260508112016 40 0.0 0.0 0.00 0.06 0.00 87 1020.2
20260508111016 40 0.0 0.0 0.00 0.06 0.00 87 1020.3
20260508110016 40 352 0.0 1.0 0.00 0.06 0.00 86 1020.4
20260508105017 40 134 0.0 3.0 0.00 0.06 0.00 86 1019.4
20260508104035 40 139 1.0 4.0 0.00 0.06 0.00 86 1019.2
20260508103015 40 126 2.0 3.0 0.00 0.06 0.00 86 1019.3
20260508102035 41 131 1.0 2.0 0.00 0.06 0.00 86 1019.3
20260508101016 41 144 0.0 1.0 0.00 0.06 0.00 85 1019.4
20260508100016 41 0.0 0.0 0.00 0.06 0.00 85 1019.4
20260508095016 42 0.0 0.0 0.00 0.06 0.00 85 1019.2
20260508094017 42 0.0 0.0 0.00 0.06 0.00 84 1019.3
20260508093055 43 0.0 0.0 0.00 0.06 0.00 83 1019.5
20260508092015 43 144 0.0 1.0 0.00 0.06 0.00 83 1019.6
20260508091036 43 144 0.0 1.0 0.00 0.06 0.00 84 1019.5
20260508090016 43 144 0.0 1.0 0.00 0.06 0.00 83 1019.5
20260508085016 44 0.0 0.0 0.00 0.06 0.00 82 1019.6
20260508084017 44 144 0.0 1.0 0.00 0.06 0.00 82 1019.7
20260508083017 44 0.0 0.0 0.00 0.06 0.00 81 1019.9
20260508082015 45 0.0 0.0 0.00 0.06 0.00 79 1019.9
20260508081015 46 0.0 0.0 0.00 0.06 0.00 78 1020.0
20260508080016 46 144 0.0 1.0 0.00 0.06 0.00 77 1019.8
20260508075016 46 138 1.0 2.0 0.00 0.06 0.00 78 1019.9
20260508074016 47 109 0.0 1.0 0.00 0.06 0.00 77 1020.2
20260508073016 47 0.0 0.0 0.00 0.06 0.00 76 1020.3
20260508072017 48 0.0 0.0 0.00 0.06 0.00 74 1020.0
20260508071015 48 0.0 0.0 0.00 0.06 0.00 74 1020.0
20260508070015 49 109 0.0 1.0 0.00 0.06 0.00 73 1019.9
20260508065015 49 121 0.0 1.0 0.00 0.06 0.00 73 1020.2
20260508064016 49 123 0.0 1.0 0.00 0.06 0.00 72 1020.4
20260508063016 50 124 0.0 1.0 0.00 0.06 0.00 71 1021.1
20260508062017 50 133 1.0 2.0 0.00 0.06 0.00 70 1020.0
20260508061017 50 135 0.0 2.0 0.00 0.06 0.00 69 1019.9
20260508060015 51 135 0.0 1.0 0.00 0.06 0.00 68 1019.8
20260508055015 51 146 0.0 2.0 0.00 0.06 0.06 68 1019.7
20260508054016 51 113 0.0 1.0 0.00 0.06 0.06 67 1019.6
20260508053016 52 96 1.0 3.0 0.00 0.06 0.06 66 1019.7
20260508052016 52 106 1.0 3.0 0.00 0.06 0.06 63 1020.0
20260508051017 53 206 0.0 1.0 0.00 0.06 0.06 61 1020.2
20260508050017 53 322 0.0 1.0 0.00 0.06 0.06 59 1019.6
20260508045015 54 146 0.0 1.0 0.00 0.06 0.06 56 1019.2
20260508044015 54 95 0.0 2.0 0.00 0.06 0.06 55 1019.0
20260508043016 55 232 0.0 1.0 0.00 0.06 0.06 53 1019.2
20260508042016 55 0.0 0.0 0.00 0.06 0.06 52 1019.0
20260508041016 55 0.0 0.0 0.00 0.06 0.06 50 1019.2
20260508040017 56 0.0 0.0 0.00 0.06 0.06 50 1019.1
20260508035015 56 0.0 0.0 0.00 0.06 0.06 49 1019.1
20260508034115 57 0.0 0.0 0.00 0.06 0.06 48 1019.0
20260508033015 57 199 0.0 1.0 0.00 0.06 0.06 47 1019.1
20260508032036 57 125 0.0 2.0 0.00 0.06 0.06 48 1019.1
20260508031016 57 236 0.0 1.0 0.00 0.06 0.06 47 1019.5
20260508030017 57 231 0.0 1.0 0.00 0.06 0.06 46 1019.1
20260508025017 57 0.0 0.0 0.00 0.06 0.06 46 1018.8
20260508024014 58 258 0.0 1.0 0.00 0.06 0.06 45 1018.7
20260508023015 59 210 0.0 1.0 0.00 0.06 0.06 44 1018.5
20260508022035 58 354 1.0 7.0 0.00 0.06 0.06 44 1018.6
20260508021016 58 0.0 0.0 0.00 0.06 0.06 46 1018.3
20260508020016 59 0.0 0.0 0.00 0.06 0.06 44 1017.9
20260508015016 59 0.0 0.0 0.00 0.06 0.06 44 1017.7
20260508014017 60 0.0 0.0 0.00 0.06 0.06 42 1017.5
20260508013015 61 0.0 0.0 0.00 0.06 0.06 40 1017.4
20260508012015 61 0.0 0.0 0.00 0.07 0.06 39 1017.3
20260508011015 62 0.0 0.0 0.00 0.07 0.06 37 1017.2
20260508010016 62 0.0 0.0 0.00 0.07 0.06 38 1017.1
20260508005016 61 81 0.0 1.0 0.00 0.07 0.06 36 1017.3
20260508004037 61 0.0 0.0 0.00 0.08 0.06 36 1017.3
20260508003017 62 0.0 0.0 0.00 0.08 0.06 36 1017.2